Regional Weather Roundup
Issued by NWS Green Bay, WI

Home | Current Version | Previous Version | Text Only | Print | Product List | Glossary On
Versions: 1 2 3 4 5 6 7 8 9 10 11 12 13 14 15 16 17 18 19 20 21 22 23 24 25 26 27 28 29 30 31 32 33 34 35 36 37 38 39 40 41 42 43 44 45 46 47 48 49 50
000
ASUS43 KGRB 170010
RWRGRB

NORTH-CENTRAL AND NORTHEAST WISCONSIN REGIONAL WEATHER ROUNDUP
NATIONAL WEATHER SERVICE GREEN BAY WI
700 PM CDT TUE SEP 16 2014

WIZ005-009-010>012-018-019-170100-
NORTH CENTRAL WISCONSIN

CITY           SKY/WX    TMP DP  RH WIND       PRES   REMARKS
IRONWOOD       MOCLDY    61  45  55 SW7       29.97S
MANITOWISH WTR CLEAR     57  42  56 SW5       30.01F
ARBOR VITAE    NOT AVBL
EAGLE RIVER    CLEAR     55  42  60 SW5       30.01F
LAND O LAKES   PTCLDY    59  41  51 W5        30.02S
RHINELANDER    CLEAR     54  44  69 SW6       30.04S
PHILLIPS       CLEAR     57  45  62 SW3       30.03S
ANTIGO         CLEAR     55  44  67 SW7       30.05S
TOMAHAWK       CLEAR     56  43  60 CALM      30.04F
MERRILL        CLOUDY    57  45  62 SW6       30.05S
$$

WIZ013-073-170100-
NORTHEAST WISCONSIN

CITY           SKY/WX    TMP DP  RH WIND       PRES   REMARKS
IRON MOUNTAIN  CLEAR     60  43  53 SW3       29.99S
MARINETTE      CLEAR     61  45  55 SW5       30.01S
OCONTO         CLEAR     59  46  63 CALM      30.03S
$$

WIZ017-030-035>037-045-170100-
CENTRAL WISCONSIN

CITY           SKY/WX    TMP DP  RH WIND       PRES   REMARKS
MEDFORD        CLEAR     56  45  66 SW3       30.06S
WAUSAU         CLEAR     58  44  60 SW7       30.04F
MOSINEE        CLEAR     55  46  71 SW6       30.07S
MARSHFIELD     CLEAR     58  45  62 SW3       30.06F
WISC RAPIDS    CLEAR     56  47  71 SW3       30.08F
STEVENS POINT  CLEAR     58  42  54 SW5       30.06F
WAUPACA        CLEAR     61  44  54 SW3       30.06S
SHAWANO        CLEAR     62  45  53 CALM      30.05S
CLINTONVILLE   CLEAR     59  45  58 SW5       30.05S
$$

WIZ038-039-048-051-170100-
FOX VALLEY

CITY           SKY/WX    TMP DP  RH WIND       PRES   REMARKS
NWS GREEN BAY  CLEAR     58  47  66 SW5       30.05F
APPLETON       NOT AVBL
OSHKOSH        CLEAR     59  44  57 SW3       30.07S
FOND DU LAC    CLEAR     56  45  66 SW3       30.08F
$$

WIZ022-050-052-170100-
EAST CENTRAL WISCONSIN

CITY           SKY/WX    TMP DP  RH WIND       PRES   REMARKS
STURGEON BAY   CLEAR     59  45  58 SW8       30.04S
MANITOWOC      CLEAR     59  46  62 SW5       30.07F
SHEBOYGAN      CLEAR     54  43  66 SW3       30.08F
$$

LMZ563-521-522-541>543-170100-
LAKESHORE

STATION/POSITION TIME  TEMP    WIND        PRES    VSBY  WAVE
                       AIR SEA DIR/SP/G                  HT/PER
                 (UTC) (F)     (DEG/KT/KT) (MB)    (MI)  (FT/S)
SHEBOYGAN LKSHOR 0000   58 49  200/  8/  9 1018.8F
KEWAUNEE LKSHORE 0000   61     210/  5/  6 1016.7R
NORTHPORT PIER   0000   61     190/  3/  7 1015.9S
N MID LAKE BUOY  0000   58 58  210/ 19/ 21 1015.8F         3/ 4
S GREEN BAY BUOY 2300   62     VRB 10/ 12  1018.0F
CHAMBERS ISLAND  0000   61     200/  4/  9 1016.3F
MENOMINEE LKSHOR 0000   63     220/  5/  8 1016.9S
$$


USA.gov is the U.S. government's official web portal to all federal, state and local government web resources and services.